Regional Weather Roundup
Issued by NWS

Home | Current Version | Previous Version | Graphics & Text | Print | Product List | Glossary On
Versions: 1 2 3 4 5 6 7 8 9 10 11 12 13 14 15 16 17 18 19 20 21 22 23 24 25 26 27 28 29 30 31 32 33 34 35 36 37 38 39 40 41 42 43 44 45 46 47 48 49 50
000
ASUS43 KBIS 061810
RWRND

NORTH DAKOTA REGIONAL WEATHER ROUNDUP
NATIONAL WEATHER SERVICE BISMARCK ND
100 PM CDT FRI MAY 06 2016

NOTE: "FAIR" INDICATES FEW OR NO CLOUDS BELOW 12,000 FEET WITH NO
SIGNIFICANT WEATHER AND/OR OBSTRUCTIONS TO VISIBILITY.


NDZ001>003-009>011-017-061900-
NORTHWEST NORTH DAKOTA

CITY           SKY/WX    TMP DP  RH WIND       PRES   REMARKS
WILLISTON      CLOUDY    65  45  48 N14       30.12R
6HR MIN TEMP:  54; 6HR MAX TEMP:  65;

MINOT          CLOUDY    69  43  38 N21G30    30.01R
MINOT AFB      CLOUDY    64  45  49 N16G25    30.02R
$$

NDZ018>021-031>035-040>046-061900-
SOUTHWEST NORTH DAKOTA

CITY           SKY/WX    TMP DP  RH WIND       PRES   REMARKS
BISMARCK       SUNNY     75  50  41 N18G26    29.96R
6HR MIN TEMP:  47; 6HR MAX TEMP:  76;

DICKINSON      CLOUDY    69  47  45 N15G24    30.03R
GARRISON       NOT AVBL
HETTINGER ARPT LGT RAIN  73  46  38 N25G32    30.02R
$$

NDZ004>008-012>016-024-026-027-054-061900-
NORTHEAST NORTH DAKOTA

CITY           SKY/WX    TMP DP  RH WIND       PRES   REMARKS
GRAND FORKS    MOSUNNY   70  42  36 N30G39    29.85R
GRND FRKS AFB  SUNNY     70  40  34 N25G35    29.88R
DEVILS LAKE    SUNNY     68  43  40 N23G29    29.94R
$$

NDZ022-023-025-028>030-036>039-047>053-061900-
SOUTHEAST NORTH DAKOTA

CITY           SKY/WX    TMP DP  RH WIND       PRES   REMARKS
FARGO          SUNNY     82  46  28 N28G39    29.77R
6HR MIN TEMP:  60; 6HR MAX TEMP:  86;

JAMESTOWN      CLOUDY    70  46  42 N25G31    29.89R
$$




USA.gov is the U.S. government's official web portal to all federal, state and local government web resources and services.